Time,TemperatureF,DewpointF,PressureIn,WindDirection,WindDirectionDegrees,WindSpeedMPH,WindSpeedGustMPH,Humidity,HourlyPrecipIn,Conditions,Clouds,dailyrainin,SoftwareType,DateUTC
2013-10-17 00:01:00,52.0,47.0,29.94,WSW,248,2.3,2.3,83,0.00,CLR,,0.00,WeatherDisplay:10.37,2013-10-17 05:01:00,
2013-10-17 00:06:00,52.2,47.2,29.91,SW,225,2.3,2.3,83,0.00,CLR,,0.00,WeatherDisplay:10.37,2013-10-17 05:06:00,
2013-10-17 00:11:00,52.2,47.2,29.91,SW,225,2.3,2.3,83,0.00,CLR,,0.00,WeatherDisplay:10.37,2013-10-17 05:11:00,
2013-10-17 00:16:00,51.8,47.1,29.91,South,180,0.0,1.0,84,0.00,CLR,,0.00,WeatherDisplay:10.37,2013-10-17 05:16:00,
2013-10-17 00:21:00,52.0,47.3,29.91,SE,135,1.2,1.2,84,0.00,CLR,,0.00,WeatherDisplay:10.37,2013-10-17 05:21:00,
2013-10-17 00:26:00,52.0,47.3,29.93,SSW,202,1.2,1.2,84,0.00,CLR,,0.00,WeatherDisplay:10.37,2013-10-17 05:26:00,
2013-10-17 00:31:00,51.8,47.1,29.93,SSW,202,2.3,2.3,84,0.00,CLR,,0.00,WeatherDisplay:10.37,2013-10-17 05:31:00,
2013-10-17 00:36:00,51.8,47.1,29.93,SE,135,1.2,1.3,84,0.00,CLR,,0.00,WeatherDisplay:10.37,2013-10-17 05:36:00,
2013-10-17 00:41:00,52.0,47.3,29.93,SE,135,1.2,1.2,84,0.00,CLR,,0.00,WeatherDisplay:10.37,2013-10-17 05:41:00,
2013-10-17 00:46:00,52.0,47.6,29.93,SSE,158,1.2,1.2,85,0.00,CLR,,0.00,WeatherDisplay:10.37,2013-10-17 05:46:00,
2013-10-17 00:51:00,52.0,47.6,29.93,South,180,3.5,3.5,85,0.00,CLR,,0.00,WeatherDisplay:10.37,2013-10-17 05:51:00,
2013-10-17 00:56:00,51.8,47.4,29.93,SW,225,2.3,2.3,85,0.00,CLR,,0.00,WeatherDisplay:10.37,2013-10-17 05:56:00,
2013-10-17 01:01:00,51.8,47.4,29.93,NNE,22,1.2,1.2,85,0.00,CLR,,0.00,WeatherDisplay:10.37,2013-10-17 06:01:00,
2013-10-17 01:06:00,51.8,47.4,29.93,SE,135,2.3,2.3,85,0.00,CLR,,0.00,WeatherDisplay:10.37,2013-10-17 06:06:00,
2013-10-17 01:11:00,51.6,47.3,29.93,NW,315,2.3,2.3,85,0.00,CLR,,0.00,WeatherDisplay:10.37,2013-10-17 06:11:00,
2013-10-17 01:16:00,51.8,47.4,29.93,West,270,2.3,2.3,85,0.00,CLR,,0.00,WeatherDisplay:10.37,2013-10-17 06:16:00,
2013-10-17 01:21:00,51.8,47.4,29.93,SSE,158,2.3,2.3,85,0.00,CLR,,0.00,WeatherDisplay:10.37,2013-10-17 06:21:00,
2013-10-17 01:27:00,51.6,47.3,29.93,South,180,1.2,1.2,85,0.00,CLR,,0.00,WeatherDisplay:10.37,2013-10-17 06:27:00,
2013-10-17 01:32:00,51.6,47.3,29.93,West,270,5.8,5.8,85,0.00,CLR,,0.00,WeatherDisplay:10.37,2013-10-17 06:32:00,
2013-10-17 01:37:00,51.6,47.3,29.93,West,270,1.6,1.6,85,0.00,CLR,,0.00,WeatherDisplay:10.37,2013-10-17 06:37:00,
2013-10-17 01:42:00,51.6,47.3,29.93,NW,315,2.3,2.3,85,0.00,CLR,,0.00,WeatherDisplay:10.37,2013-10-17 06:42:00,
2013-10-17 01:47:00,51.4,47.1,29.93,West,270,1.2,1.2,85,0.00,CLR,,0.00,WeatherDisplay:10.37,2013-10-17 06:47:00,
2013-10-17 01:52:00,51.4,47.1,29.93,SE,135,2.3,2.3,85,0.00,CLR,,0.00,WeatherDisplay:10.37,2013-10-17 06:52:00,
2013-10-17 01:57:00,51.4,47.1,29.93,ENE,68,1.2,1.2,85,0.00,CLR,,0.00,WeatherDisplay:10.37,2013-10-17 06:57:00,
2013-10-17 02:02:00,51.4,47.1,29.93,SE,135,3.8,3.8,85,0.00,CLR,,0.00,WeatherDisplay:10.37,2013-10-17 07:02:00,
2013-10-17 02:07:00,51.6,47.3,29.92,West,270,1.2,1.2,85,0.00,CLR,,0.00,WeatherDisplay:10.37,2013-10-17 07:07:00,
2013-10-17 02:12:00,51.6,47.3,29.92,SW,225,2.8,2.8,85,0.00,CLR,,0.00,WeatherDisplay:10.37,2013-10-17 07:12:00,
2013-10-17 02:17:00,51.4,47.1,29.92,WNW,292,3.5,3.5,85,0.00,CLR,,0.00,WeatherDisplay:10.37,2013-10-17 07:17:00,
2013-10-17 02:22:00,51.4,47.1,29.92,SW,225,1.2,1.8,85,0.00,CLR,,0.00,WeatherDisplay:10.37,2013-10-17 07:22:00,
2013-10-17 02:27:00,51.4,47.1,29.92,South,180,0.0,1.4,85,0.00,CLR,,0.00,WeatherDisplay:10.37,2013-10-17 07:27:00,
2013-10-17 02:32:00,51.4,47.1,29.92,NNE,22,2.3,2.3,85,0.00,CLR,,0.00,WeatherDisplay:10.37,2013-10-17 07:32:00,
2013-10-17 02:37:00,51.3,46.9,29.92,South,180,1.2,1.2,85,0.00,CLR,,0.00,WeatherDisplay:10.37,2013-10-17 07:37:00,
2013-10-17 02:42:00,51.3,46.9,29.92,SSE,158,1.5,1.5,85,0.00,CLR,,0.00,WeatherDisplay:10.37,2013-10-17 07:42:00,
2013-10-17 02:47:00,51.3,46.9,29.88,NW,315,2.3,2.3,85,0.00,CLR,,0.00,WeatherDisplay:10.37,2013-10-17 07:47:00,
2013-10-17 02:52:00,51.3,46.9,29.88,West,270,0.0,0.9,85,0.00,CLR,,0.00,WeatherDisplay:10.37,2013-10-17 07:52:00,
2013-10-17 02:57:00,51.3,46.9,29.88,ESE,112,1.2,1.2,85,0.00,CLR,,0.00,WeatherDisplay:10.37,2013-10-17 07:57:00,
2013-10-17 03:02:00,51.3,46.9,29.88,West,270,2.3,2.3,85,0.00,CLR,,0.00,WeatherDisplay:10.37,2013-10-17 08:02:00,
2013-10-17 03:07:00,51.3,46.9,29.91,West,270,2.3,2.3,85,0.00,CLR,,0.00,WeatherDisplay:10.37,2013-10-17 08:07:00,
2013-10-17 03:08:00,51.3,46.9,29.91,West,270,2.3,2.3,85,0.00,CLR,,0.00,WeatherDisplay:10.37,2013-10-17 08:08:00,
2013-10-17 03:13:00,51.3,46.9,29.91,SW,225,2.3,2.3,85,0.00,CLR,,0.00,WeatherDisplay:10.37,2013-10-17 08:13:00,
2013-10-17 03:18:00,51.3,47.2,29.91,East,90,0.0,0.9,86,0.00,CLR,,0.00,WeatherDisplay:10.37,2013-10-17 08:18:00,
2013-10-17 03:23:00,51.1,47.0,29.90,East,90,1.2,1.2,86,0.00,CLR,,0.00,WeatherDisplay:10.37,2013-10-17 08:23:00,
2013-10-17 03:28:00,51.1,47.0,29.90,SW,225,2.3,2.3,86,0.00,CLR,,0.00,WeatherDisplay:10.37,2013-10-17 08:28:00,
2013-10-17 03:33:00,50.9,46.9,29.90,South,180,3.5,3.5,86,0.00,CLR,,0.00,WeatherDisplay:10.37,2013-10-17 08:33:00,
2013-10-17 03:38:00,50.9,46.9,29.90,WSW,248,2.8,2.8,86,0.00,CLR,,0.00,WeatherDisplay:10.37,2013-10-17 08:38:00,
2013-10-17 03:43:00,50.9,46.9,29.90,WSW,248,1.2,1.3,86,0.00,CLR,,0.00,WeatherDisplay:10.37,2013-10-17 08:43:00,
2013-10-17 03:48:00,50.9,46.9,29.90,NE,45,0.0,1.4,86,0.00,CLR,,0.00,WeatherDisplay:10.37,2013-10-17 08:48:00,
2013-10-17 03:53:00,50.9,46.9,29.90,WSW,248,4.6,4.6,86,0.00,CLR,,0.00,WeatherDisplay:10.37,2013-10-17 08:53:00,
2013-10-17 03:58:00,50.9,46.9,29.90,NE,45,0.0,0.9,86,0.00,CLR,,0.00,WeatherDisplay:10.37,2013-10-17 08:58:00,
2013-10-17 04:03:00,50.9,46.9,29.90,SSE,158,2.3,2.3,86,0.00,CLR,,0.00,WeatherDisplay:10.37,2013-10-17 09:03:00,
2013-10-17 04:08:00,50.9,46.9,29.90,SW,225,1.2,1.2,86,0.00,CLR,,0.00,WeatherDisplay:10.37,2013-10-17 09:08:00,
2013-10-17 04:13:00,50.7,46.7,29.90,South,180,1.2,1.2,86,0.00,CLR,,0.00,WeatherDisplay:10.37,2013-10-17 09:13:00,
2013-10-17 04:18:00,50.7,46.7,29.90,West,270,1.2,1.2,86,0.00,CLR,,0.00,WeatherDisplay:10.37,2013-10-17 09:18:00,
2013-10-17 04:23:00,50.7,46.7,29.90,NW,315,2.3,2.3,86,0.00,CLR,,0.00,WeatherDisplay:10.37,2013-10-17 09:23:00,
2013-10-17 04:28:00,50.9,46.9,29.90,WSW,248,0.0,0.9,86,0.00,CLR,,0.00,WeatherDisplay:10.37,2013-10-17 09:28:00,
2013-10-17 04:33:00,50.9,46.9,29.90,NW,315,2.3,2.3,86,0.00,CLR,,0.00,WeatherDisplay:10.37,2013-10-17 09:33:00,
2013-10-17 04:38:00,50.7,46.7,29.90,SSW,202,4.6,4.6,86,0.00,CLR,,0.00,WeatherDisplay:10.37,2013-10-17 09:38:00,
2013-10-17 04:43:00,50.9,46.9,29.90,NNW,338,2.3,2.3,86,0.00,CLR,,0.00,WeatherDisplay:10.37,2013-10-17 09:43:00,
2013-10-17 04:48:00,50.9,46.9,29.90,WNW,292,3.5,3.5,86,0.00,CLR,,0.00,WeatherDisplay:10.37,2013-10-17 09:48:00,
2013-10-17 04:53:00,50.9,46.9,29.90,West,270,2.3,2.3,86,0.00,CLR,,0.00,WeatherDisplay:10.37,2013-10-17 09:53:00,
2013-10-17 04:58:00,50.9,46.9,29.90,WNW,292,0.0,1.0,86,0.00,CLR,,0.00,WeatherDisplay:10.37,2013-10-17 09:58:00,
2013-10-17 05:03:00,50.7,47.0,29.89,WSW,248,1.2,1.2,87,0.00,CLR,,0.00,WeatherDisplay:10.37,2013-10-17 10:03:00,
2013-10-17 05:08:00,50.7,47.0,29.89,West,270,1.2,1.2,87,0.00,CLR,,0.00,WeatherDisplay:10.37,2013-10-17 10:08:00,
2013-10-17 05:13:00,50.5,46.8,29.89,NW,315,2.3,2.3,87,0.00,CLR,,0.00,WeatherDisplay:10.37,2013-10-17 10:13:00,
2013-10-17 05:18:00,50.5,46.8,29.89,WNW,292,1.2,1.2,87,0.00,CLR,,0.00,WeatherDisplay:10.37,2013-10-17 10:18:00,
2013-10-17 05:23:00,50.7,47.0,29.90,South,180,1.2,1.2,87,0.00,CLR,,0.00,WeatherDisplay:10.37,2013-10-17 10:23:00,
2013-10-17 05:28:00,50.5,46.8,29.90,WSW,248,1.2,1.2,87,0.00,CLR,,0.00,WeatherDisplay:10.37,2013-10-17 10:28:00,
2013-10-17 05:33:00,50.5,46.8,29.90,South,180,2.3,2.3,87,0.00,CLR,,0.00,WeatherDisplay:10.37,2013-10-17 10:33:00,
2013-10-17 05:38:00,50.5,46.8,29.90,SW,225,0.0,0.3,87,0.00,CLR,,0.00,WeatherDisplay:10.37,2013-10-17 10:38:00,
2013-10-17 05:43:00,50.5,46.8,29.88,SSW,202,2.3,2.3,87,0.00,CLR,,0.00,WeatherDisplay:10.37,2013-10-17 10:43:00,
2013-10-17 05:48:00,50.5,46.8,29.88,WSW,248,0.0,0.3,87,0.00,CLR,,0.00,WeatherDisplay:10.37,2013-10-17 10:48:00,
2013-10-17 05:53:00,50.4,46.6,29.88,WSW,248,0.0,0.2,87,0.00,CLR,,0.00,WeatherDisplay:10.37,2013-10-17 10:53:00,
2013-10-17 05:58:00,50.2,46.5,29.88,SE,135,0.0,0.0,87,0.00,CLR,,0.00,WeatherDisplay:10.37,2013-10-17 10:58:00,
2013-10-17 06:03:00,50.2,46.5,29.87,SE,135,0.0,0.1,87,0.00,CLR,,0.00,WeatherDisplay:10.37,2013-10-17 11:03:00,
2013-10-17 06:08:00,50.2,46.5,29.87,SE,135,0.0,0.1,87,0.00,CLR,,0.00,WeatherDisplay:10.37,2013-10-17 11:08:00,
2013-10-17 06:13:00,50.0,46.6,29.87,South,180,0.0,0.1,88,0.00,CLR,,0.00,WeatherDisplay:10.37,2013-10-17 11:13:00,
2013-10-17 06:18:00,50.2,46.8,29.87,South,180,0.0,0.0,88,0.00,CLR,,0.00,WeatherDisplay:10.37,2013-10-17 11:18:00,
2013-10-17 06:23:00,50.0,46.6,29.87,SSW,202,0.0,0.0,88,0.00,CLR,,0.00,WeatherDisplay:10.37,2013-10-17 11:23:00,
2013-10-17 06:28:00,50.0,46.6,29.87,SW,225,0.0,0.0,88,0.00,CLR,,0.00,WeatherDisplay:10.37,2013-10-17 11:28:00,
2013-10-17 06:33:00,49.8,46.4,29.87,South,180,0.0,0.0,88,0.00,CLR,,0.00,WeatherDisplay:10.37,2013-10-17 11:33:00,
2013-10-17 06:38:00,49.8,46.4,29.87,South,180,0.0,0.0,88,0.00,CLR,,0.00,WeatherDisplay:10.37,2013-10-17 11:38:00,
2013-10-17 06:43:00,49.8,46.7,29.87,SW,225,0.0,0.0,89,0.00,CLR,,0.00,WeatherDisplay:10.37,2013-10-17 11:43:00,
2013-10-17 06:48:00,49.6,46.5,29.87,SW,225,0.0,0.0,89,0.00,CLR,,0.00,WeatherDisplay:10.37,2013-10-17 11:48:00,
2013-10-17 06:53:00,49.6,46.5,29.87,SE,135,0.0,0.1,89,0.00,CLR,,0.00,WeatherDisplay:10.37,2013-10-17 11:53:00,
2013-10-17 06:58:00,49.8,46.7,29.87,SSE,158,1.2,1.2,89,0.00,CLR,,0.00,WeatherDisplay:10.37,2013-10-17 11:58:00,
2013-10-17 07:03:00,49.8,46.7,29.88,SSE,158,0.0,0.1,89,0.00,CLR,,0.00,WeatherDisplay:10.37,2013-10-17 12:03:00,
2013-10-17 07:08:00,49.8,47.0,29.88,SW,225,0.0,0.1,90,0.00,CLR,,0.00,WeatherDisplay:10.37,2013-10-17 12:08:00,
2013-10-17 07:13:00,49.6,46.8,29.88,South,180,0.0,0.1,90,0.00,CLR,,0.00,WeatherDisplay:10.37,2013-10-17 12:13:00,
2013-10-17 07:18:00,49.6,46.8,29.88,SW,225,0.0,0.3,90,0.00,CLR,,0.03,WeatherDisplay:10.37,2013-10-17 12:18:00,
2013-10-17 07:23:00,49.6,46.8,29.87,SSE,158,1.2,1.2,90,0.03,RA,,0.03,WeatherDisplay:10.37,2013-10-17 12:23:00,
2013-10-17 07:28:00,49.8,47.0,29.87,SSW,202,3.5,3.5,90,0.03,RA,,0.03,WeatherDisplay:10.37,2013-10-17 12:28:00,
2013-10-17 07:33:00,49.8,47.0,29.87,South,180,2.3,2.3,90,0.03,CLR,,0.03,WeatherDisplay:10.37,2013-10-17 12:33:00,
2013-10-17 07:38:00,49.8,47.0,29.87,South,180,0.0,1.2,90,0.03,CLR,,0.03,WeatherDisplay:10.37,2013-10-17 12:38:00,
2013-10-17 07:43:00,50.0,47.5,29.88,South,180,2.3,2.3,91,0.03,CLR,,0.03,WeatherDisplay:10.37,2013-10-17 12:43:00,
2013-10-17 07:48:00,50.0,47.5,29.88,WSW,248,2.0,2.0,91,0.03,CLR,,0.03,WeatherDisplay:10.37,2013-10-17 12:48:00,
2013-10-17 07:53:00,50.0,47.5,29.88,South,180,3.5,3.5,91,0.03,CLR,,0.03,WeatherDisplay:10.37,2013-10-17 12:53:00,
2013-10-17 07:58:00,50.2,47.7,29.88,SE,135,1.2,1.2,91,0.03,CLR,,0.03,WeatherDisplay:10.37,2013-10-17 12:58:00,
2013-10-17 08:03:00,50.2,47.7,29.88,South,180,1.2,1.2,91,0.03,CLR,,0.03,WeatherDisplay:10.37,2013-10-17 13:03:00,
2013-10-17 08:08:00,50.2,47.7,29.88,SSW,202,1.2,1.2,91,0.03,CLR,,0.03,WeatherDisplay:10.37,2013-10-17 13:08:00,
2013-10-17 08:13:00,50.2,47.7,29.88,SSE,158,2.3,2.3,91,0.03,CLR,,0.03,WeatherDisplay:10.37,2013-10-17 13:13:00,
2013-10-17 08:18:00,50.2,47.7,29.88,SSW,202,1.2,1.7,91,0.03,CLR,,0.03,WeatherDisplay:10.37,2013-10-17 13:18:00,
2013-10-17 08:23:00,50.0,47.5,29.87,SSE,158,0.0,1.3,91,0.03,RA,,0.06,WeatherDisplay:10.37,2013-10-17 13:23:00,
2013-10-17 08:28:00,50.2,47.9,29.87,SSE,158,1.2,1.2,92,0.03,RA,,0.06,WeatherDisplay:10.37,2013-10-17 13:28:00,
2013-10-17 08:33:00,50.2,47.9,29.87,SSW,202,3.5,3.5,92,0.03,CLR,,0.06,WeatherDisplay:10.37,2013-10-17 13:33:00,
2013-10-17 08:38:00,50.2,47.9,29.87,South,180,3.5,3.5,92,0.03,CLR,,0.06,WeatherDisplay:10.37,2013-10-17 13:38:00,
2013-10-17 08:43:00,50.5,48.3,29.88,South,180,3.5,3.5,92,0.03,CLR,,0.06,WeatherDisplay:10.37,2013-10-17 13:43:00,
2013-10-17 08:48:00,50.5,48.3,29.88,SE,135,2.3,2.3,92,0.03,CLR,,0.06,WeatherDisplay:10.37,2013-10-17 13:48:00,
2013-10-17 08:53:00,50.4,48.1,29.88,WSW,248,2.3,2.3,92,0.03,CLR,,0.06,WeatherDisplay:10.37,2013-10-17 13:53:00,
2013-10-17 08:58:00,50.5,48.3,29.88,South,180,2.8,2.8,92,0.03,CLR,,0.06,WeatherDisplay:10.37,2013-10-17 13:58:00,
2013-10-17 09:03:00,50.5,48.3,29.87,South,180,3.5,3.5,92,0.03,CLR,,0.06,WeatherDisplay:10.37,2013-10-17 14:03:00,
2013-10-17 09:08:00,50.5,48.6,29.87,WSW,248,2.3,2.3,93,0.03,CLR,,0.06,WeatherDisplay:10.37,2013-10-17 14:08:00,
2013-10-17 09:13:00,50.4,48.4,29.87,NW,315,2.3,2.3,93,0.03,CLR,,0.06,WeatherDisplay:10.37,2013-10-17 14:13:00,
2013-10-17 09:18:00,50.5,48.6,29.87,West,270,2.3,2.3,93,0.06,RA,,0.08,WeatherDisplay:10.37,2013-10-17 14:18:00,
2013-10-17 09:23:00,50.5,48.6,29.87,SW,225,2.3,2.3,93,0.03,RA,,0.08,WeatherDisplay:10.37,2013-10-17 14:23:00,
2013-10-17 09:28:00,50.2,48.2,29.87,SW,225,4.8,4.8,93,0.03,CLR,,0.08,WeatherDisplay:10.37,2013-10-17 14:28:00,
2013-10-17 09:33:00,50.2,48.2,29.87,SSW,202,4.6,4.6,93,0.03,CLR,,0.08,WeatherDisplay:10.37,2013-10-17 14:33:00,
2013-10-17 09:38:00,50.4,48.4,29.87,ESE,112,3.7,3.7,93,0.03,CLR,,0.08,WeatherDisplay:10.37,2013-10-17 14:38:00,
2013-10-17 09:43:00,50.5,48.6,29.86,South,180,3.5,3.5,93,0.03,CLR,,0.08,WeatherDisplay:10.37,2013-10-17 14:43:00,
2013-10-17 09:48:00,50.5,48.6,29.86,South,180,4.6,4.6,93,0.03,CLR,,0.08,WeatherDisplay:10.37,2013-10-17 14:48:00,
2013-10-17 09:53:00,50.5,48.6,29.86,South,180,2.3,2.3,93,0.03,CLR,,0.08,WeatherDisplay:10.37,2013-10-17 14:53:00,
2013-10-17 09:58:00,50.5,48.6,29.86,South,180,5.8,5.8,93,0.03,CLR,,0.08,WeatherDisplay:10.37,2013-10-17 14:58:00,
2013-10-17 10:03:00,50.4,48.4,29.87,SSE,158,2.3,2.3,93,0.03,CLR,,0.08,WeatherDisplay:10.37,2013-10-17 15:03:00,
2013-10-17 10:08:00,50.4,48.4,29.87,South,180,2.3,2.3,93,0.06,RA,,0.11,WeatherDisplay:10.37,2013-10-17 15:08:00,
2013-10-17 10:13:00,50.5,48.6,29.87,South,180,5.8,5.8,93,0.06,RA,,0.11,WeatherDisplay:10.37,2013-10-17 15:13:00,
2013-10-17 10:18:00,50.5,48.6,29.87,West,270,2.3,2.3,93,0.03,,,0.11,WeatherDisplay:10.37,2013-10-17 15:18:00,
2013-10-17 10:23:00,50.5,48.6,29.87,South,180,4.6,4.6,93,0.03,CLR,,0.11,WeatherDisplay:10.37,2013-10-17 15:23:00,
2013-10-17 10:29:00,50.5,48.6,29.87,NNW,338,2.3,2.3,93,0.03,CLR,,0.11,WeatherDisplay:10.37,2013-10-17 15:29:00,
2013-10-17 10:34:00,50.5,48.6,29.87,SSE,158,5.8,5.8,93,0.03,CLR,,0.11,WeatherDisplay:10.37,2013-10-17 15:34:00,
2013-10-17 10:39:00,50.2,48.2,29.87,ENE,68,1.2,2.4,93,0.03,CLR,,0.11,WeatherDisplay:10.37,2013-10-17 15:39:00,
2013-10-17 10:44:00,50.2,48.2,29.87,WSW,248,2.3,2.3,93,0.03,CLR,,0.11,WeatherDisplay:10.37,2013-10-17 15:44:00,
2013-10-17 10:49:00,50.2,48.2,29.87,West,270,3.5,3.5,93,0.03,CLR,,0.11,WeatherDisplay:10.37,2013-10-17 15:49:00,
2013-10-17 10:54:00,50.4,48.4,29.87,NW,315,6.9,6.9,93,0.03,CLR,,0.11,WeatherDisplay:10.37,2013-10-17 15:54:00,
2013-10-17 10:59:00,50.5,48.6,29.87,South,180,5.8,5.8,93,0.03,CLR,,0.11,WeatherDisplay:10.37,2013-10-17 15:59:00,
2013-10-17 11:04:00,50.5,48.6,29.92,SSW,202,4.6,4.6,93,0.06,RA,,0.14,WeatherDisplay:10.37,2013-10-17 16:04:00,
2013-10-17 11:09:00,50.7,48.8,29.92,SW,225,3.6,3.6,93,0.03,RA,,0.14,WeatherDisplay:10.37,2013-10-17 16:09:00,
2013-10-17 11:14:00,50.7,48.8,29.92,SW,225,0.0,1.8,93,0.03,CLR,,0.14,WeatherDisplay:10.37,2013-10-17 16:14:00,
2013-10-17 11:19:00,50.5,48.6,29.92,SW,225,3.5,3.5,93,0.03,CLR,,0.14,WeatherDisplay:10.37,2013-10-17 16:19:00,
2013-10-17 11:24:00,50.5,48.6,29.88,SE,135,0.0,2.0,93,0.03,CLR,,0.14,WeatherDisplay:10.37,2013-10-17 16:24:00,
2013-10-17 11:29:00,50.5,48.6,29.88,South,180,3.5,3.5,93,0.03,CLR,,0.14,WeatherDisplay:10.37,2013-10-17 16:29:00,
2013-10-17 11:34:00,50.5,48.6,29.88,West,270,2.8,2.8,93,0.03,CLR,,0.14,WeatherDisplay:10.37,2013-10-17 16:34:00,
2013-10-17 11:39:00,50.2,48.2,29.88,WNW,292,3.5,3.5,93,0.03,CLR,,0.14,WeatherDisplay:10.37,2013-10-17 16:39:00,
2013-10-17 11:44:00,50.2,48.2,29.87,South,180,0.0,2.4,93,0.03,CLR,,0.14,WeatherDisplay:10.37,2013-10-17 16:44:00,
2013-10-17 11:49:00,50.4,48.4,29.87,West,270,2.5,2.5,93,0.03,CLR,,0.14,WeatherDisplay:10.37,2013-10-17 16:49:00,
2013-10-17 11:54:00,50.5,48.6,29.87,SW,225,3.8,3.8,93,0.03,CLR,,0.14,WeatherDisplay:10.37,2013-10-17 16:54:00,
2013-10-17 11:59:00,50.7,48.8,29.87,North,0,4.6,4.6,93,0.03,CLR,,0.14,WeatherDisplay:10.37,2013-10-17 16:59:00,
2013-10-17 12:04:00,50.9,48.9,29.91,NNW,338,1.6,2.0,93,0.00,CLR,,0.14,WeatherDisplay:10.37,2013-10-17 17:04:00,
2013-10-17 12:09:00,50.9,48.9,29.91,NNW,338,1.6,2.0,93,0.00,CLR,,0.14,WeatherDisplay:10.37,2013-10-17 17:09:00,
2013-10-17 12:14:00,50.9,48.9,29.91,SW,225,8.1,8.1,93,0.00,CLR,,0.14,WeatherDisplay:10.37,2013-10-17 17:14:00,
2013-10-17 12:19:00,50.9,48.9,29.91,NNE,22,3.5,3.5,93,0.00,CLR,,0.14,WeatherDisplay:10.37,2013-10-17 17:19:00,
2013-10-17 12:24:00,50.9,48.9,29.90,SW,225,1.2,2.6,93,0.00,CLR,,0.14,WeatherDisplay:10.37,2013-10-17 17:24:00,
2013-10-17 12:29:00,50.9,48.9,29.90,West,270,1.5,2.1,93,0.00,CLR,,0.14,WeatherDisplay:10.37,2013-10-17 17:29:00,
2013-10-17 12:34:00,51.3,49.3,29.90,SW,225,5.8,5.8,93,0.00,CLR,,0.14,WeatherDisplay:10.37,2013-10-17 17:34:00,
2013-10-17 12:39:00,51.3,49.3,29.90,SW,225,4.6,4.6,93,0.00,CLR,,0.14,WeatherDisplay:10.37,2013-10-17 17:39:00,
2013-10-17 12:44:00,51.6,49.7,29.91,SSE,158,5.8,5.8,93,0.00,CLR,,0.14,WeatherDisplay:10.37,2013-10-17 17:44:00,
2013-10-17 12:49:00,51.4,49.5,29.91,SW,225,2.3,3.0,93,0.00,CLR,,0.14,WeatherDisplay:10.37,2013-10-17 17:49:00,
2013-10-17 12:54:00,51.4,49.5,29.91,SSW,202,3.5,3.5,93,0.00,CLR,,0.14,WeatherDisplay:10.37,2013-10-17 17:54:00,
2013-10-17 12:59:00,52.0,50.0,29.91,NW,315,4.6,4.6,93,0.00,CLR,,0.14,WeatherDisplay:10.37,2013-10-17 17:59:00,
2013-10-17 13:04:00,52.0,50.0,29.91,SW,225,2.3,3.0,93,0.00,CLR,,0.14,WeatherDisplay:10.37,2013-10-17 18:04:00,
2013-10-17 13:09:00,52.2,50.2,29.91,South,180,4.6,4.6,93,0.00,CLR,,0.14,WeatherDisplay:10.37,2013-10-17 18:09:00,
2013-10-17 13:14:00,52.3,50.4,29.91,SSE,158,1.2,2.6,93,0.00,CLR,,0.14,WeatherDisplay:10.37,2013-10-17 18:14:00,
2013-10-17 13:19:00,52.2,49.9,29.91,SW,225,6.9,6.9,92,0.00,CLR,,0.14,WeatherDisplay:10.37,2013-10-17 18:19:00,
2013-10-17 13:24:00,52.0,49.7,29.90,North,0,3.5,3.5,92,0.00,CLR,,0.14,WeatherDisplay:10.37,2013-10-17 18:24:00,
2013-10-17 13:29:00,52.3,50.1,29.90,South,180,5.8,5.8,92,0.00,CLR,,0.14,WeatherDisplay:10.37,2013-10-17 18:29:00,
2013-10-17 13:34:00,52.2,49.9,29.90,SSE,158,5.8,5.8,92,0.00,CLR,,0.14,WeatherDisplay:10.37,2013-10-17 18:34:00,
2013-10-17 13:39:00,52.2,49.6,29.90,NW,315,4.6,4.6,91,0.00,CLR,,0.14,WeatherDisplay:10.37,2013-10-17 18:39:00,
2013-10-17 13:44:00,52.5,50.0,29.89,NW,315,3.5,3.5,91,0.00,CLR,,0.14,WeatherDisplay:10.37,2013-10-17 18:44:00,
2013-10-17 13:49:00,53.1,50.5,29.89,ESE,112,8.1,8.1,91,0.00,CLR,,0.14,WeatherDisplay:10.37,2013-10-17 18:49:00,
2013-10-17 13:54:00,53.4,50.6,29.89,SSE,158,2.3,3.6,90,0.00,CLR,,0.14,WeatherDisplay:10.37,2013-10-17 18:54:00,
2013-10-17 13:59:00,54.1,50.7,29.89,NE,45,5.8,5.8,88,0.00,CLR,,0.14,WeatherDisplay:10.37,2013-10-17 18:59:00,
2013-10-17 14:04:00,54.3,50.2,29.89,NW,315,3.5,3.8,86,0.00,CLR,,0.14,WeatherDisplay:10.37,2013-10-17 19:04:00,
2013-10-17 14:09:00,54.9,50.4,29.89,SE,135,9.2,9.2,85,0.00,CLR,,0.14,WeatherDisplay:10.37,2013-10-17 19:09:00,
2013-10-17 14:14:00,55.0,50.0,29.89,NW,315,5.9,5.9,83,0.00,CLR,,0.14,WeatherDisplay:10.37,2013-10-17 19:14:00,
2013-10-17 14:19:00,54.5,48.8,29.89,SW,225,3.5,4.1,81,0.00,CLR,,0.14,WeatherDisplay:10.37,2013-10-17 19:19:00,
2013-10-17 14:24:00,54.0,48.3,29.89,WSW,248,4.6,4.6,81,0.00,CLR,,0.14,WeatherDisplay:10.37,2013-10-17 19:24:00,
2013-10-17 14:29:00,54.0,48.3,29.89,WSW,248,3.5,3.7,81,0.00,CLR,,0.14,WeatherDisplay:10.37,2013-10-17 19:29:00,
2013-10-17 14:31:00,54.5,48.8,29.89,NNE,22,2.3,3.3,81,0.00,CLR,,0.14,WeatherDisplay:10.37,2013-10-17 19:31:00,
2013-10-17 14:36:00,54.7,48.6,29.89,NW,315,3.5,3.5,80,0.00,CLR,,0.14,WeatherDisplay:10.37,2013-10-17 19:36:00,
2013-10-17 14:41:00,54.5,48.1,29.89,SE,135,9.2,9.2,79,0.00,CLR,,0.14,WeatherDisplay:10.37,2013-10-17 19:41:00,
2013-10-17 14:46:00,54.1,47.8,29.89,ENE,68,2.3,3.5,79,0.00,CLR,,0.14,WeatherDisplay:10.37,2013-10-17 19:46:00,
2013-10-17 14:51:00,54.1,47.8,29.89,North,0,3.5,3.5,79,0.00,CLR,,0.14,WeatherDisplay:10.37,2013-10-17 19:51:00,
2013-10-17 14:56:00,53.8,47.4,29.89,NW,315,2.6,2.6,79,0.00,CLR,,0.14,WeatherDisplay:10.37,2013-10-17 19:56:00,
2013-10-17 15:01:00,53.6,47.2,29.89,WSW,248,4.6,4.6,79,0.00,CLR,,0.14,WeatherDisplay:10.37,2013-10-17 20:01:00,
2013-10-17 15:06:00,53.4,47.4,29.84,WNW,292,3.5,3.5,80,0.00,CLR,,0.14,WeatherDisplay:10.37,2013-10-17 20:06:00,
2013-10-17 15:11:00,53.4,47.4,29.84,South,180,4.6,4.6,80,0.00,CLR,,0.14,WeatherDisplay:10.37,2013-10-17 20:11:00,
2013-10-17 15:16:00,53.6,47.6,29.84,WSW,248,4.6,4.6,80,0.00,CLR,,0.14,WeatherDisplay:10.37,2013-10-17 20:16:00,
2013-10-17 15:21:00,53.6,47.2,29.84,West,270,5.8,5.8,79,0.00,CLR,,0.14,WeatherDisplay:10.37,2013-10-17 20:21:00,
2013-10-17 15:26:00,53.4,46.7,29.84,West,270,5.8,5.8,78,0.00,CLR,,0.14,WeatherDisplay:10.37,2013-10-17 20:26:00,
2013-10-17 15:31:00,53.4,47.1,29.84,WSW,248,5.2,5.2,79,0.00,CLR,,0.14,WeatherDisplay:10.37,2013-10-17 20:31:00,
2013-10-17 15:36:00,53.4,46.7,29.84,South,180,1.6,3.3,78,0.00,CLR,,0.14,WeatherDisplay:10.37,2013-10-17 20:36:00,
2013-10-17 15:41:00,53.6,46.6,29.84,NNW,338,6.9,6.9,77,0.00,CLR,,0.14,WeatherDisplay:10.37,2013-10-17 20:41:00,
2013-10-17 15:46:00,53.8,46.4,29.89,West,270,6.9,6.9,76,0.00,CLR,,0.14,WeatherDisplay:10.37,2013-10-17 20:46:00,
2013-10-17 15:51:00,53.8,46.0,29.89,WSW,248,8.1,8.1,75,0.00,CLR,,0.14,WeatherDisplay:10.37,2013-10-17 20:51:00,
2013-10-17 15:56:00,54.1,46.4,29.89,NNW,338,3.5,3.5,75,0.00,CLR,,0.14,WeatherDisplay:10.37,2013-10-17 20:56:00,
2013-10-17 16:01:00,54.1,46.4,29.89,NW,315,3.5,3.5,75,0.00,CLR,,0.14,WeatherDisplay:10.37,2013-10-17 21:01:00,
2013-10-17 16:06:00,54.1,46.4,29.87,NNE,22,0.0,3.0,75,0.00,CLR,,0.14,WeatherDisplay:10.37,2013-10-17 21:06:00,
2013-10-17 16:11:00,54.1,46.7,29.87,NW,315,3.5,3.5,76,0.00,CLR,,0.14,WeatherDisplay:10.37,2013-10-17 21:11:00,
2013-10-17 16:16:00,54.3,46.6,29.87,West,270,2.8,2.8,75,0.00,CLR,,0.14,WeatherDisplay:10.37,2013-10-17 21:16:00,
2013-10-17 16:21:00,54.5,46.4,29.87,NW,315,4.6,4.6,74,0.00,CLR,,0.14,WeatherDisplay:10.37,2013-10-17 21:21:00,
2013-10-17 16:26:00,54.5,46.4,29.90,North,0,2.3,2.5,74,0.00,CLR,,0.14,WeatherDisplay:10.37,2013-10-17 21:26:00,
2013-10-17 16:31:00,54.5,46.4,29.90,West,270,4.6,4.6,74,0.00,CLR,,0.14,WeatherDisplay:10.37,2013-10-17 21:31:00,
2013-10-17 16:36:00,54.3,45.8,29.90,NW,315,2.5,2.9,73,0.00,CLR,,0.14,WeatherDisplay:10.37,2013-10-17 21:36:00,
2013-10-17 16:41:00,54.3,46.2,29.90,NW,315,4.6,4.6,74,0.00,CLR,,0.14,WeatherDisplay:10.37,2013-10-17 21:41:00,
2013-10-17 16:46:00,54.1,45.7,29.89,West,270,2.3,3.0,73,0.00,CLR,,0.14,WeatherDisplay:10.37,2013-10-17 21:46:00,
2013-10-17 16:51:00,54.3,46.2,29.89,NW,315,5.8,5.8,74,0.00,CLR,,0.14,WeatherDisplay:10.37,2013-10-17 21:51:00,
2013-10-17 16:56:00,54.3,45.8,29.89,WNW,292,3.5,3.5,73,0.00,CLR,,0.14,WeatherDisplay:10.37,2013-10-17 21:56:00,
2013-10-17 17:01:00,54.3,45.8,29.89,NW,315,6.9,6.9,73,0.00,CLR,,0.14,WeatherDisplay:10.37,2013-10-17 22:01:00,
2013-10-17 17:06:00,54.5,45.7,29.91,West,270,6.2,6.2,72,0.00,CLR,,0.14,WeatherDisplay:10.37,2013-10-17 22:06:00,
2013-10-17 17:11:00,54.3,45.8,29.91,NW,315,9.2,9.2,73,0.00,CLR,,0.14,WeatherDisplay:10.37,2013-10-17 22:11:00,
2013-10-17 17:16:00,54.3,45.5,29.91,NNW,338,4.6,4.6,72,0.00,CLR,,0.14,WeatherDisplay:10.37,2013-10-17 22:16:00,
2013-10-17 17:21:00,53.8,45.0,29.91,WNW,292,3.9,3.9,72,0.00,CLR,,0.14,WeatherDisplay:10.37,2013-10-17 22:21:00,
2013-10-17 17:26:00,53.6,45.2,29.86,West,270,3.5,3.5,73,0.00,CLR,,0.14,WeatherDisplay:10.37,2013-10-17 22:26:00,
2013-10-17 17:31:00,53.4,45.0,29.86,NW,315,3.5,3.5,73,0.00,CLR,,0.14,WeatherDisplay:10.37,2013-10-17 22:31:00,
2013-10-17 17:36:00,53.1,45.0,29.86,NW,315,2.6,2.6,74,0.00,CLR,,0.14,WeatherDisplay:10.37,2013-10-17 22:36:00,
2013-10-17 17:41:00,52.7,44.6,29.86,WSW,248,3.5,3.5,74,0.00,CLR,,0.14,WeatherDisplay:10.37,2013-10-17 22:41:00,
2013-10-17 17:46:00,52.3,44.6,29.85,NNW,338,0.0,1.2,75,0.00,CLR,,0.14,WeatherDisplay:10.37,2013-10-17 22:46:00,
2013-10-17 17:51:00,52.2,44.8,29.85,ENE,68,1.5,1.5,76,0.00,CLR,,0.14,WeatherDisplay:10.37,2013-10-17 22:51:00,
2013-10-17 17:56:00,51.6,44.3,29.85,East,90,0.0,0.1,76,0.00,CLR,,0.14,WeatherDisplay:10.37,2013-10-17 22:56:00,
2013-10-17 18:01:00,51.3,44.3,29.85,SE,135,0.0,0.1,77,0.00,CLR,,0.14,WeatherDisplay:10.37,2013-10-17 23:01:00,
2013-10-17 18:06:00,50.7,44.1,29.86,West,270,0.0,0.1,78,0.00,CLR,,0.14,WeatherDisplay:10.37,2013-10-17 23:06:00,
2013-10-17 18:11:00,50.4,44.1,29.86,SSE,158,0.0,0.1,79,0.00,CLR,,0.14,WeatherDisplay:10.37,2013-10-17 23:11:00,
2013-10-17 18:16:00,50.0,43.7,29.86,SSE,158,0.0,0.0,79,0.00,CLR,,0.14,WeatherDisplay:10.37,2013-10-17 23:16:00,
2013-10-17 18:21:00,49.8,43.9,29.86,SE,135,0.0,0.0,80,0.00,CLR,,0.14,WeatherDisplay:10.37,2013-10-17 23:21:00,
2013-10-17 18:26:00,49.8,44.2,29.86,South,180,0.0,0.0,81,0.00,CLR,,0.14,WeatherDisplay:10.37,2013-10-17 23:26:00,
2013-10-17 18:31:00,49.5,43.9,29.86,SSE,158,0.0,0.0,81,0.00,CLR,,0.14,WeatherDisplay:10.37,2013-10-17 23:31:00,
2013-10-17 18:36:00,48.9,43.7,29.86,SSE,158,0.0,0.0,82,0.00,CLR,,0.14,WeatherDisplay:10.37,2013-10-17 23:36:00,
2013-10-17 18:41:00,48.7,43.5,29.86,South,180,0.0,0.0,82,0.00,CLR,,0.14,WeatherDisplay:10.37,2013-10-17 23:41:00,
2013-10-17 18:46:00,48.2,43.3,29.87,SW,225,0.0,0.0,83,0.00,CLR,,0.14,WeatherDisplay:10.37,2013-10-17 23:46:00,
2013-10-17 18:51:00,47.7,42.8,29.87,SW,225,0.0,0.0,83,0.00,CLR,,0.14,WeatherDisplay:10.37,2013-10-17 23:51:00,
2013-10-17 18:56:00,47.3,42.7,29.87,SSW,202,0.0,0.0,84,0.00,CLR,,0.14,WeatherDisplay:10.37,2013-10-17 23:56:00,
2013-10-17 19:01:00,46.9,42.4,29.87,SSE,158,0.0,0.0,84,0.00,CLR,,0.14,WeatherDisplay:10.37,2013-10-18 00:01:00,
2013-10-17 19:06:00,46.6,42.0,29.88,South,180,0.0,0.0,84,0.00,CLR,,0.14,WeatherDisplay:10.37,2013-10-18 00:06:00,
2013-10-17 19:11:00,45.9,41.6,29.88,SSE,158,0.0,0.0,85,0.00,CLR,,0.14,WeatherDisplay:10.37,2013-10-18 00:11:00,
2013-10-17 19:16:00,45.7,41.4,29.88,South,180,0.0,0.0,85,0.00,CLR,,0.14,WeatherDisplay:10.37,2013-10-18 00:16:00,
2013-10-17 19:21:00,45.5,41.6,29.88,North,0,0.0,0.0,86,0.00,CLR,,0.14,WeatherDisplay:10.37,2013-10-18 00:21:00,
2013-10-17 19:26:00,45.0,41.0,29.88,NNE,22,0.0,0.0,86,0.00,CLR,,0.14,WeatherDisplay:10.37,2013-10-18 00:26:00,
2013-10-17 19:31:00,44.6,40.7,29.88,South,180,0.0,0.0,86,0.00,CLR,,0.14,WeatherDisplay:10.37,2013-10-18 00:31:00,
2013-10-17 19:36:00,44.6,41.0,29.88,SW,225,0.0,0.0,87,0.00,CLR,,0.14,WeatherDisplay:10.37,2013-10-18 00:36:00,
2013-10-17 19:41:00,44.2,40.6,29.88,South,180,0.0,0.0,87,0.00,CLR,,0.14,WeatherDisplay:10.37,2013-10-18 00:41:00,
2013-10-17 19:46:00,44.1,40.4,29.88,South,180,0.0,0.0,87,0.00,CLR,,0.14,WeatherDisplay:10.37,2013-10-18 00:46:00,
2013-10-17 19:51:00,43.9,40.6,29.88,SSW,202,0.0,0.0,88,0.00,CLR,,0.14,WeatherDisplay:10.37,2013-10-18 00:51:00,
2013-10-17 19:56:00,43.7,40.4,29.88,SSW,202,0.0,0.0,88,0.00,CLR,,0.14,WeatherDisplay:10.37,2013-10-18 00:56:00,
2013-10-17 20:01:00,43.2,39.6,29.88,SSW,202,0.0,0.0,87,0.00,CLR,,0.14,WeatherDisplay:10.37,2013-10-18 01:01:00,
2013-10-17 20:06:00,43.0,39.7,29.89,SSW,202,0.0,0.0,88,0.00,CLR,,0.14,WeatherDisplay:10.37,2013-10-18 01:06:00,
2013-10-17 20:11:00,42.6,39.3,29.89,South,180,0.0,0.0,88,0.00,CLR,,0.14,WeatherDisplay:10.37,2013-10-18 01:11:00,
2013-10-17 20:16:00,42.4,39.1,29.89,South,180,0.0,0.0,88,0.00,CLR,,0.14,WeatherDisplay:10.37,2013-10-18 01:16:00,
2013-10-17 20:21:00,42.8,39.8,29.89,SSE,158,0.0,0.0,89,0.00,CLR,,0.14,WeatherDisplay:10.37,2013-10-18 01:21:00,
2013-10-17 20:26:00,43.0,40.0,29.89,South,180,0.0,0.0,89,0.00,CLR,,0.14,WeatherDisplay:10.37,2013-10-18 01:26:00,
2013-10-17 20:31:00,43.0,40.0,29.89,SW,225,0.0,0.0,89,0.00,CLR,,0.14,WeatherDisplay:10.37,2013-10-18 01:31:00,
2013-10-17 20:36:00,42.8,39.8,29.89,South,180,0.0,0.0,89,0.00,CLR,,0.14,WeatherDisplay:10.37,2013-10-18 01:36:00,
2013-10-17 20:41:00,42.6,39.6,29.89,South,180,0.0,0.0,89,0.00,CLR,,0.14,WeatherDisplay:10.37,2013-10-18 01:41:00,
2013-10-17 20:46:00,42.6,39.6,29.90,South,180,0.0,0.0,89,0.00,CLR,,0.14,WeatherDisplay:10.37,2013-10-18 01:46:00,
2013-10-17 20:51:00,42.4,39.4,29.90,South,180,0.0,0.0,89,0.00,CLR,,0.14,WeatherDisplay:10.37,2013-10-18 01:51:00,
2013-10-17 20:56:00,42.6,39.6,29.90,SSW,202,0.0,0.0,89,0.00,CLR,,0.14,WeatherDisplay:10.37,2013-10-18 01:56:00,
2013-10-17 21:01:00,42.6,39.9,29.90,South,180,0.0,0.0,90,0.00,CLR,,0.14,WeatherDisplay:10.37,2013-10-18 02:01:00,
2013-10-17 21:06:00,42.6,39.9,29.90,South,180,0.0,0.0,90,0.00,CLR,,0.14,WeatherDisplay:10.37,2013-10-18 02:06:00,
2013-10-17 21:11:00,42.6,39.9,29.90,South,180,0.0,0.0,90,0.00,CLR,,0.14,WeatherDisplay:10.37,2013-10-18 02:11:00,
2013-10-17 21:16:00,42.6,39.9,29.90,South,180,0.0,0.0,90,0.00,CLR,,0.14,WeatherDisplay:10.37,2013-10-18 02:16:00,
2013-10-17 21:21:00,42.6,39.9,29.90,SW,225,0.0,0.0,90,0.00,CLR,,0.14,WeatherDisplay:10.37,2013-10-18 02:21:00,
2013-10-17 21:26:00,42.6,39.9,29.90,SSW,202,0.0,0.0,90,0.00,CLR,,0.14,WeatherDisplay:10.37,2013-10-18 02:26:00,
2013-10-17 21:31:00,42.3,39.5,29.90,SW,225,0.0,0.0,90,0.00,CLR,,0.14,WeatherDisplay:10.37,2013-10-18 02:31:00,
2013-10-17 21:36:00,42.1,39.4,29.90,South,180,0.0,0.0,90,0.00,CLR,,0.14,WeatherDisplay:10.37,2013-10-18 02:36:00,
2013-10-17 21:41:00,42.1,39.4,29.90,SW,225,0.0,0.0,90,0.00,CLR,,0.14,WeatherDisplay:10.37,2013-10-18 02:41:00,
2013-10-17 21:46:00,42.3,39.5,29.90,SSW,202,0.0,0.0,90,0.00,CLR,,0.14,WeatherDisplay:10.37,2013-10-18 02:46:00,
2013-10-17 21:51:00,42.1,39.6,29.90,South,180,0.0,0.0,91,0.00,CLR,,0.14,WeatherDisplay:10.37,2013-10-18 02:51:00,
2013-10-17 21:56:00,42.3,39.8,29.90,SSW,202,0.0,0.0,91,0.00,CLR,,0.14,WeatherDisplay:10.37,2013-10-18 02:56:00,
2013-10-17 22:01:00,42.1,39.6,29.90,SW,225,0.0,0.0,91,0.00,CLR,,0.14,WeatherDisplay:10.37,2013-10-18 03:01:00,
2013-10-17 22:06:00,42.3,39.8,29.90,South,180,0.0,0.0,91,0.00,CLR,,0.14,WeatherDisplay:10.37,2013-10-18 03:06:00,
2013-10-17 22:11:00,42.1,39.6,29.90,SSW,202,0.0,0.0,91,0.00,CLR,,0.14,WeatherDisplay:10.37,2013-10-18 03:11:00,
2013-10-17 22:16:00,41.9,39.5,29.90,SSW,202,0.0,0.0,91,0.00,CLR,,0.14,WeatherDisplay:10.37,2013-10-18 03:16:00,
2013-10-17 22:21:00,41.9,39.5,29.90,SSE,158,0.0,0.0,91,0.00,CLR,,0.14,WeatherDisplay:10.37,2013-10-18 03:21:00,
2013-10-17 22:26:00,41.9,39.5,29.90,South,180,0.0,0.0,91,0.00,CLR,,0.14,WeatherDisplay:10.37,2013-10-18 03:26:00,
2013-10-17 22:31:00,41.5,39.1,29.90,South,180,0.0,0.0,91,0.00,CLR,,0.14,WeatherDisplay:10.37,2013-10-18 03:31:00,
2013-10-17 22:36:00,41.5,39.1,29.90,SW,225,0.0,0.0,91,0.00,CLR,,0.14,WeatherDisplay:10.37,2013-10-18 03:36:00,
2013-10-17 22:41:00,41.2,38.8,29.90,SW,225,0.0,0.0,91,0.00,CLR,,0.14,WeatherDisplay:10.37,2013-10-18 03:41:00,
2013-10-17 22:46:00,41.0,38.6,29.88,SE,135,0.0,0.0,91,0.00,CLR,,0.14,WeatherDisplay:10.37,2013-10-18 03:46:00,
2013-10-17 22:51:00,41.0,38.6,29.88,SE,135,0.0,0.0,91,0.00,CLR,,0.14,WeatherDisplay:10.37,2013-10-18 03:51:00,
2013-10-17 22:56:00,41.2,38.8,29.88,SSW,202,0.0,0.0,91,0.00,CLR,,0.14,WeatherDisplay:10.37,2013-10-18 03:56:00,
2013-10-17 23:01:00,40.8,38.4,29.88,South,180,0.0,0.0,91,0.00,CLR,,0.14,WeatherDisplay:10.37,2013-10-18 04:01:00,
2013-10-17 23:06:00,40.8,38.4,29.90,SSW,202,0.0,0.0,91,0.00,CLR,,0.14,WeatherDisplay:10.37,2013-10-18 04:06:00,
2013-10-17 23:11:00,40.6,38.2,29.90,SW,225,0.0,0.0,91,0.00,CLR,,0.14,WeatherDisplay:10.37,2013-10-18 04:11:00,
2013-10-17 23:16:00,40.5,38.0,29.90,SW,225,0.0,0.0,91,0.00,CLR,,0.14,WeatherDisplay:10.37,2013-10-18 04:16:00,
2013-10-17 23:21:00,39.9,37.5,29.90,SW,225,0.0,0.0,91,0.00,CLR,,0.14,WeatherDisplay:10.37,2013-10-18 04:21:00,
2013-10-17 23:26:00,39.9,37.5,29.89,SSW,202,0.0,0.0,91,0.00,CLR,,0.14,WeatherDisplay:10.37,2013-10-18 04:26:00,
2013-10-17 23:31:00,39.9,37.5,29.89,SW,225,0.0,0.0,91,0.00,CLR,,0.14,WeatherDisplay:10.37,2013-10-18 04:31:00,
2013-10-17 23:36:00,39.9,37.8,29.89,SSE,158,0.0,0.0,92,0.00,CLR,,0.14,WeatherDisplay:10.37,2013-10-18 04:36:00,
2013-10-17 23:41:00,39.9,37.8,29.89,SSW,202,0.0,0.0,92,0.00,CLR,,0.14,WeatherDisplay:10.37,2013-10-18 04:41:00,
2013-10-17 23:46:00,39.7,37.6,29.89,SW,225,0.0,0.0,92,0.00,CLR,,0.14,WeatherDisplay:10.37,2013-10-18 04:46:00,
2013-10-17 23:51:00,39.7,37.6,29.89,SSW,202,0.0,0.0,92,0.00,CLR,,0.14,WeatherDisplay:10.37,2013-10-18 04:51:00,
2013-10-17 23:56:00,39.4,37.2,29.89,SW,225,0.0,0.0,92,0.00,CLR,,0.14,WeatherDisplay:10.37,2013-10-18 04:56:00,